Volver al catálogo

ANNA 1B

ActivoCienciaLEO
NORAD 446·PAYLOAD·🇺🇸 United States

Lanzado Oct 31, 1962 desde Cape Canaveral Space Force Station

Loading…

Próximos Pases (próximas 24 horas)

TLE

ActualizadoSource: Space-Track

Época: Sep 14, 2026, 15:44 UTC

1 00446U 62060A   26257.65565916 -.00000109  00000-0  31941-4 0  9996
2 00446  50.1434  31.7825 0069975 281.0091  91.8394 13.35366128115667

Sigue ANNA 1B en tiempo real con AllMySat

Download on the App Store